Wind_Speed
13 15 16 17 20 21 22 22 21 20 18 16 15 12 9 4 2 5 3 6 9 11 10 9 9 9 9 10 8 8 11 5 10 8 11 11 13 10 3 18 21 16 16 14 12
13 15 17 18 20 21 22 22 22 20 18 15 14 10 6 2 5 8 7 8 11 15 12 12 11 11 13 10 6 11 10 13 7 8 8 10 15 13 9 20 13 21 15 13 11
13 15 17 19 20 21 23 22 22 19 17 15 12 8 4 4 4 7 8 11 16 17 9 8 8 11 12 9 8 7 8 4 5 7 6 7 17 15 20 18 18 15 15 17 13
14 17 19 20 21 23 24 23 21 18 18 15 9 5 3 5 1 5 10 15 16 13 6 8 11 12 11 10 5 9 4 5 8 3 6 7 17 20 22 20 17 16 15 14 15
16 17 20 21 22 23 23 21 19 17 18 11 5 3 4 7 2 6 15 16 13 8 9 11 13 15 10 8 6 10 6 1 4 6 9 15 18 18 21 19 19 18 20 21 21
16 18 21 21 22 23 23 18 18 17 11 7 2 4 6 11 5 8 16 14 9 10 7 7 5 4 6 5 10 4 2 5 9 7 9 14 13 15 22 19 22 22 21 22 23
16 19 21 22 23 23 21 17 18 11 8 3 1 5 6 1 7 11 15 11 9 7 7 5 4 9 2 7 4 6 10 10 8 12 11 31 10 16 24 18 23 20 21 23 22
16 19 21 23 23 23 19 17 16 7 6 2 2 5 3 6 8 12 14 10 9 8 6 6 7 11 9 1 7 11 12 12 15 7 8 12 14 16 21 20 20 21 21 21 20
15 18 21 23 23 20 18 16 9 5 5 3 2 4 6 7 10 14 13 11 10 8 8 8 8 16 10 12 14 10 12 11 11 13 5 7 15 16 15 19 18 18 19 19 18
15 18 20 23 22 17 15 10 8 7 5 2 4 6 8 9 12 13 13 9 9 9 10 13 11 13 13 15 10 13 13 12 9 12 12 8 13 9 12 16 17 17 17 16 15
16 18 20 22 21 14 17 12 8 1 7 9 2 7 8 7 9 11 12 12 10 10 15 17 14 16 13 2 11 6 4 5 9 3 7 11 10 11 13 16 17 17 16 14 13
16 18 19 21 17 13 15 8 7 7 12 11 10 11 7 7 11 13 14 14 13 16 14 9 15 9 2 4 7 7 2 10 7 5 11 11 13 11 13 13 16 16 14 13 10
16 17 20 19 11 17 7 10 10 9 8 10 9 8 12 12 13 16 16 14 13 12 14 13 13 5 6 6 7 4 4 7 9 7 13 12 11 2 14 14 14 11 10 9 8
15 17 20 19 5 12 5 11 12 5 5 12 9 9 10 12 7 16 15 8 8 12 11 2 9 9 7 5 8 9 3 1 4 11 3 16 5 26 18 18 14 14 7 7 5
14 17 17 19 18 8 5 11 9 3 6 14 15 13 13 17 19 14 11 10 14 5 8 10 10 9 8 11 6 7 3 6 8 11 15 11 8 9 12 7 10 11 8 5 1
13 15 17 16 17 9 11 8 4 7 3 8 10 14 13 13 15 17 12 9 4 5 14 9 1 5 12 2 4 2 5 8 9 13 12 19 7 15 14 17 11 6 7 5 2
13 14 16 16 8 12 8 3 6 7 12 9 15 17 17 12 12 13 15 14 10 10 9 7 13 7 6 10 7 10 8 10 9 7 2 14 7 12 13 11 10 13 8 7 2
14 14 15 10 8 8 5 5 6 4 4 8 12 16 15 14 12 13 14 15 9 13 8 10 8 12 5 9 7 3 9 7 9 10 7 9 9 4 11 13 12 11 12 8 10
13 10 11 7 6 4 4 6 3 3 4 7 11 12 10 12 7 12 14 14 7 6 9 5 8 6 1 4 8 3 4 8 7 16 9 10 10 13 9 9 8 9 11 8 9
12 10 9 10 4 3 6 11 6 4 6 7 11 14 12 12 12 12 9 5 5 5 8 4 3 5 9 6 8 7 8 6 5 6 6 6 19 8 9 9 8 9 8 10 10
8 7 5 3 2 7 8 11 3 4 5 5 8 8 11 11 12 11 8 8 3 4 5 3 5 9 7 7 9 3 4 1 4 5 7 9 8 9 9 8 7 7 11 12 15
7 8 5 3 9 11 8 6 5 7 4 6 5 12 9 12 10 4 7 5 2 3 2 4 4 3 11 6 5 4 8 6 6 6 7 6 6 7 8 9 10 12 13 15 15
10 14 3 5 6 9 7 8 6 7 6 6 8 5 10 11 4 7 9 2 3 3 4 3 1 6 6 8 5 3 4 2 3 6 1 7 6 6 7 6 6 9 12 14 18
7 5 12 11 13 7 5 8 10 8 9 6 1 8 10 10 7 9 10 4 6 9 5 2 2 7 9 6 10 5 3 4 3 6 9 9 8 9 10 11 13 13 15 16 18
10 7 6 6 12 11 6 5 7 8 8 7 8 13 12 10 9 11 11 12 8 5 2 1 1 1 3 5 8 7 5 7 8 8 8 8 8 10 9 9 12 15 15 16 19
6 8 6 13 4 6 7 8 7 1 4 9 9 13 13 10 8 9 11 9 5 8 5 1 4 6 7 6 9 9 7 5 6 9 5 1 13 9 9 12 14 12 13 17 18
12 7 6 7 12 10 10 11 5 6 5 6 9 9 9 8 8 15 14 10 5 6 5 5 8 8 6 7 9 8 6 5 6 9 9 9 8 10 10 13 11 12 16 18 16
Wind_Direction
333 331 332 332 331 331 331 330 330 327 325 327 329 333 337 330 214 157 218 158 181 178 158 161 175 188 197 218 232 247 260 93 38 11 48 23 13 11 266 85 61 51 66 98 112
332 332 332 330 329 331 330 329 330 324 322 323 324 329 332 331 197 218 230 216 183 162 147 159 172 179 197 205 213 250 275 58 24 26 3 64 29 1 34 43 27 65 65 91 91
334 332 330 330 330 330 329 330 329 323 319 318 316 320 312 211 260 142 205 174 167 157 183 196 183 195 216 192 194 214 11 64 48 23 341 30 63 33 50 58 51 70 84 75 72
336 334 332 333 331 329 330 332 329 323 317 312 306 299 269 225 329 152 168 167 173 176 187 190 200 215 219 211 167 251 73 348 35 82 36 58 93 69 72 74 72 69 75 75 66
335 336 333 332 331 330 331 331 327 324 314 310 293 248 213 231 119 163 160 165 170 181 192 191 198 219 228 213 191 249 113 180 103 85 98 91 84 89 78 80 78 80 80 81 79
333 335 333 334 330 331 331 333 332 325 315 311 253 211 208 241 127 166 161 168 188 191 202 223 246 293 313 238 236 122 241 183 166 150 114 94 121 109 79 77 83 85 83 77 74
333 334 334 334 331 333 331 338 333 324 320 323 175 214 245 20 154 165 170 175 193 209 205 223 281 236 299 207 224 208 216 187 188 162 132 76 44 97 109 104 97 97 90 84 80
332 334 335 336 332 336 333 339 327 320 336 348 216 174 267 167 163 176 177 195 205 216 234 254 258 267 257 1 210 231 235 193 165 196 212 217 148 118 117 113 106 101 95 91 83
329 333 336 337 333 340 335 340 328 312 322 334 146 209 177 184 189 185 186 192 203 218 232 248 249 247 194 221 205 208 211 192 153 209 277 245 137 117 120 119 116 110 108 103 94
327 334 338 337 337 342 338 15 352 315 302 331 220 241 196 201 169 185 192 204 202 207 222 226 225 219 222 218 239 179 222 170 180 173 248 125 95 111 134 128 125 124 113 107 99
325 333 340 337 341 343 6 345 344 235 259 265 295 279 142 151 177 190 193 202 216 222 226 196 220 216 208 338 337 352 231 131 65 117 243 99 143 156 140 136 141 130 125 118 111
322 332 339 340 340 346 34 67 40 322 301 257 247 254 236 191 195 198 180 198 199 221 223 189 230 62 32 255 251 241 156 117 145 205 265 147 170 159 165 151 142 141 133 129 120
318 330 337 346 343 2 24 39 354 325 258 203 214 232 188 192 200 178 186 215 209 232 202 227 94 132 204 199 230 221 248 149 216 187 255 194 147 300 170 163 140 128 135 136 129
315 328 339 346 358 2 7 350 346 321 266 157 192 218 189 203 193 174 197 246 218 219 207 161 125 193 212 215 286 204 213 248 186 253 228 261 259 203 176 164 174 147 147 139 128
312 325 336 342 335 4 314 333 332 325 236 152 154 152 188 209 152 192 197 225 251 203 245 129 176 216 213 32 288 52 349 273 259 248 288 235 253 62 32 114 160 153 153 139 193
306 322 328 340 339 318 327 317 302 234 193 152 163 179 185 214 191 156 196 226 332 228 226 145 120 261 87 147 298 63 238 232 244 247 236 360 313 107 157 196 149 146 137 173 126
299 314 320 322 303 308 335 345 245 256 141 159 176 180 189 189 183 180 197 201 198 213 194 175 189 131 242 169 170 227 210 234 233 218 143 203 307 64 59 57 117 113 140 78 345
297 310 309 313 304 320 336 246 261 20 144 160 174 185 193 179 191 198 194 205 223 252 188 207 174 178 162 291 1 44 328 347 328 334 5 180 38 82 72 71 70 114 89 52 35
301 313 295 286 295 308 268 257 285 19 36 167 184 192 178 189 189 186 201 211 181 230 310 211 120 121 215 274 292 62 256 30 297 251 257 117 129 98 84 86 50 61 63 36 15
312 303 264 251 283 284 244 247 306 356 309 257 191 189 166 184 195 184 174 34 135 271 280 7 126 199 141 252 205 291 358 283 229 313 319 348 66 79 47 36 47 46 38 38 353
316 272 191 244 260 238 241 251 288 321 295 237 234 210 187 182 200 181 156 119 257 139 257 313 257 148 192 218 0 254 208 10 290 292 326 291 81 49 55 46 37 31 30 2 357
272 244 164 188 243 223 239 277 359 277 244 250 296 227 185 192 201 131 167 83 143 312 155 67 297 283 58 62 1 12 354 336 318 9 324 286 89 59 37 48 20 12 15 352 349
255 251 227 198 241 224 221 270 265 279 244 202 219 238 211 187 169 144 97 88 143 26 47 24 221 235 205 189 180 34 50 13 279 271 187 305 106 92 54 14 25 3 345 340 345
261 233 206 218 254 299 306 257 250 222 251 254 287 202 204 177 184 156 132 102 93 88 75 339 301 292 341 26 89 117 50 3 329 290 358 50 112 67 37 11 1 352 348 348 348
229 243 354 184 219 206 237 303 252 229 219 233 208 213 195 190 174 174 138 135 129 145 109 63 209 218 94 71 77 81 66 47 53 26 10 49 55 38 21 354 352 347 1 360 348
254 244 213 268 279 232 198 240 240 224 240 201 248 210 194 206 180 157 160 163 146 168 122 186 133 136 129 121 104 95 82 67 56 7 62 228 88 39 10 352 350 11 359 356 356
229 269 284 223 213 227 211 230 201 303 235 253 218 190 188 164 97 94 84 63 99 145 154 170 156 197 128 154 153 135 54 36 100 47 10 32 27 13 4 356 1 22 0 355 353
Height
1550 1547 1544 1541 1538 1535 1532 1528 1525 1523 1520 1517 1514 1512 1509 1508 1508 1507 1509 1508 1509 1509 1509 1511 1512 1513 1511 1507 1506 1502 1486 1480 1487 1487 1487 1488 1483 1485 1485 1487 1494 1497 1503 1506 1508
1548 1546 1542 1540 1537 1533 1529 1527 1523 1521 1518 1515 1513 1511 1509 1507 1507 1508 1507 1508 1509 1509 1511 1512 1511 1511 1507 1503 1502 1497 1482 1485 1492 1491 1490 1491 1493 1491 1487 1495 1495 1501 1506 1507 1508
1548 1546 1543 1539 1536 1532 1528 1524 1521 1519 1516 1514 1511 1509 1508 1507 1507 1503 1506 1508 1509 1509 1512 1510 1510 1509 1500 1499 1498 1492 1489 1491 1495 1498 1494 1492 1496 1500 1496 1503 1508 1510 1510 1511 1515
1547 1543 1540 1537 1533 1530 1525 1521 1519 1516 1514 1512 1510 1508 1508 1507 1500 1504 1505 1508 1509 1509 1513 1511 1509 1505 1497 1497 1496 1494 1495 1497 1497 1496 1493 1495 1500 1505 1508 1514 1516 1517 1517 1518 1519
1544 1542 1538 1535 1531 1527 1523 1520 1518 1514 1512 1510 1508 1507 1508 1507 1503 1504 1505 1509 1510 1510 1511 1508 1505 1500 1494 1492 1497 1494 1495 1499 1500 1499 1499 1501 1504 1507 1511 1515 1519 1522 1522 1523 1526
1543 1540 1537 1533 1530 1526 1521 1518 1514 1512 1511 1508 1507 1507 1508 1506 1504 1504 1507 1509 1511 1512 1510 1505 1502 1501 1495 1495 1495 1492 1497 1498 1499 1498 1499 1502 1504 1507 1514 1520 1525 1527 1529 1530 1530
1542 1538 1535 1531 1527 1523 1519 1514 1512 1511 1510 1507 1506 1507 1508 1504 1505 1507 1508 1510 1511 1511 1509 1509 1508 1506 1499 1495 1497 1497 1496 1495 1497 1496 1498 1508 1520 1512 1515 1522 1525 1531 1533 1534 1535
1541 1538 1534 1530 1525 1521 1516 1512 1511 1510 1509 1507 1507 1507 1503 1505 1506 1508 1509 1510 1511 1511 1511 1510 1509 1506 1501 1496 1497 1496 1489 1497 1491 1492 1492 1500 1513 1513 1511 1518 1528 1532 1535 1537 1538
1540 1537 1534 1529 1525 1518 1515 1511 1510 1510 1509 1507 1509 1508 1501 1504 1505 1506 1508 1508 1510 1510 1510 1509 1509 1504 1498 1495 1492 1489 1492 1488 1494 1490 1483 1490 1510 1508 1508 1516 1529 1533 1537 1539 1540
1539 1536 1533 1528 1524 1519 1517 1510 1510 1509 1509 1507 1507 1510 1503 1501 1502 1504 1507 1508 1508 1508 1508 1507 1505 1495 1490 1483 1490 1483 1483 1478 1487 1486 1487 1473 1501 1507 1512 1519 1528 1533 1537 1540 1541
1537 1534 1531 1528 1523 1521 1513 1510 1513 1513 1511 1506 1504 1503 1500 1502 1503 1504 1505 1508 1507 1505 1499 1497 1493 1487 1475 1475 1475 1474 1477 1481 1487 1486 1486 1489 1505 1511 1516 1521 1527 1531 1537 1541 1542
1536 1534 1531 1527 1523 1521 1516 1517 1522 1524 1512 1503 1502 1501 1501 1501 1501 1501 1504 1504 1502 1495 1490 1490 1489 1477 1481 1482 1480 1478 1480 1488 1492 1493 1491 1494 1501 1511 1517 1520 1525 1529 1533 1538 1541
1536 1534 1531 1528 1521 1519 1521 1518 1521 1521 1515 1498 1500 1499 1499 1501 1495 1498 1501 1499 1495 1487 1486 1480 1479 1486 1484 1484 1484 1479 1481 1491 1490 1491 1487 1487 1502 1523 1511 1521 1526 1529 1532 1535 1538
1535 1533 1530 1525 1526 1522 1519 1519 1521 1519 1508 1492 1495 1497 1497 1495 1494 1495 1498 1496 1489 1484 1480 1476 1484 1487 1484 1484 1483 1486 1480 1485 1489 1494 1503 1495 1511 1520 1502 1512 1519 1528 1533 1535 1539
1534 1531 1530 1527 1522 1521 1521 1518 1520 1520 1504 1484 1489 1492 1491 1490 1488 1495 1496 1495 1486 1484 1483 1482 1487 1487 1485 1487 1485 1492 1483 1486 1485 1488 1484 1482 1497 1510 1522 1517 1521 1526 1529 1532 1538
1533 1531 1528 1527 1523 1521 1519 1519 1522 1515 1501 1486 1485 1488 1489 1488 1487 1490 1494 1494 1488 1483 1482 1480 1485 1482 1481 1488 1487 1486 1488 1485 1483 1482 1495 1518 1495 1537 1539 1527 1522 1530 1530 1530 1536
1532 1530 1528 1526 1524 1521 1518 1519 1512 1501 1475 1489 1485 1482 1483 1485 1486 1487 1489 1489 1487 1495 1491 1485 1485 1484 1487 1487 1485 1485 1489 1498 1507 1502 1499 1493 1491 1508 1510 1511 1516 1527 1532 1535 1538
1529 1528 1525 1525 1521 1519 1520 1518 1515 1476 1475 1476 1478 1481 1483 1482 1484 1484 1485 1485 1481 1477 1478 1490 1502 1485 1485 1483 1484 1485 1488 1499 1518 1502 1490 1480 1506 1518 1509 1513 1518 1525 1534 1538 1541
1528 1527 1526 1524 1521 1521 1521 1513 1484 1476 1478 1482 1478 1481 1482 1482 1482 1482 1483 1479 1478 1480 1487 1485 1490 1484 1487 1486 1487 1488 1491 1488 1503 1486 1494 1499 1507 1507 1512 1518 1522 1526 1535 1540 1542
1525 1525 1523 1520 1520 1520 1516 1509 1488 1487 1488 1483 1485 1477 1489 1486 1483 1479 1482 1485 1488 1488 1484 1480 1497 1484 1487 1489 1487 1489 1487 1500 1492 1518 1521 1490 1511 1531 1524 1525 1527 1530 1536 1541 1545
1525 1522 1517 1519 1519 1519 1509 1492 1491 1490 1491 1486 1479 1482 1481 1484 1476 1475 1482 1491 1492 1487 1485 1482 1491 1490 1488 1488 1489 1489 1488 1494 1500 1502 1518 1516 1533 1528 1531 1533 1533 1534 1539 1543 1544
1526 1517 1516 1517 1516 1507 1505 1494 1499 1491 1490 1487 1485 1478 1477 1478 1477 1479 1487 1486 1497 1493 1487 1492 1491 1494 1494 1493 1492 1495 1499 1500 1513 1512 1502 1511 1539 1533 1534 1536 1539 1539 1542 1545 1545
1522 1513 1513 1516 1507 1499 1497 1498 1496 1492 1489 1486 1485 1480 1478 1481 1486 1482 1490 1498 1497 1494 1495 1496 1497 1506 1504 1499 1497 1500 1503 1505 1508 1511 1512 1522 1539 1533 1536 1538 1540 1542 1544 1545 1545
1522 1507 1509 1511 1506 1506 1498 1497 1494 1491 1494 1490 1484 1485 1481 1482 1481 1487 1494 1498 1499 1502 1503 1502 1502 1506 1511 1508 1496 1512 1510 1508 1508 1516 1512 1520 1525 1527 1533 1539 1542 1544 1545 1546 1546
1519 1506 1503 1497 1498 1501 1503 1497 1495 1489 1490 1489 1485 1482 1483 1486 1484 1487 1490 1498 1502 1506 1504 1502 1509 1504 1503 1502 1503 1510 1514 1514 1518 1519 1524 1526 1529 1538 1542 1545 1546 1546 1547 1549 1549
1513 1511 1507 1501 1501 1502 1502 1496 1494 1487 1489 1486 1486 1479 1479 1482 1482 1489 1491 1493 1498 1502 1504 1506 1512 1508 1513 1508 1511 1518 1519 1520 1522 1521 1521 1523 1535 1541 1544 1547 1547 1548 1551 1552 1551
1515 1514 1512 1497 1498 1497 1492 1496 1492 1497 1490 1486 1480 1478 1480 1479 1482 1486 1493 1498 1499 1501 1506 1507 1509 1513 1521 1511 1515 1526 1525 1525 1525 1528 1529 1534 1541 1543 1545 1548 1547 1551 1553 1554 1555